Weather History for Valladolid Airport, Spain

Change the Weather History Date:

Friday, January 25, 2013

  Actual Average Record
Temperature  
Mean Temperature 36 °F -  
Max Temperature 42 °F - - ()
Min Temperature 30 °F - - ()
Degree Days  
Heating Degree Days 29    
Moisture  
Dew Point 37 °F    
Average Humidity 94    
Maximum Humidity 100    
Minimum Humidity 87    
Precipitation  
Precipitation 0.00 in - - ()
Sea Level Pressure  
Sea Level Pressure 30.00 in    
Wind  
Wind Speed 4 mph ()    
Max Wind Speed 14 mph    
Max Gust Speed -    
Visibility 5.9 miles    
Events Fog    
T = Trace of Precipitation, MM = Missing Value Source: Averaged Metar Reports

Daily Weather History Graph

Daily Weather History Graph

Search for Another Location

Airport:

Trip Planner

Search our weather history database for the weather conditions in past years. The results will help you decide how hot, cold, wet, or windy it might be!

Date:

Astronomy

Jan. 25, 2013 Rise Set
Actual Time 8:37 AM CET 6:26 PM CET
Civil Twilight 8:07 AM CET 6:56 PM CET
Nautical Twilight 7:34 AM CET 7:29 PM CET
Astronomical Twilight 7:01 AM CET 8:02 PM CET
Moon 5:10 PM CET (1/25) 7:08 AM CET (1/25)
Length of Visible Light 10h 48m
Length of Day
9h 48m
Waxing Gibbous, 97% of the Moon is Illuminated
Jan 25
Waxing Gibbous
Jan 27
Full
Feb 3
Last Quarter
Feb 10
New
Feb 17
First Quarter

Hourly Weather History & Observations

Time (CET) Temp. Windchill Dew Point Humidity Pressure Visibility Wind Dir Wind Speed Gust Speed Precip Events Conditions
6:00 AM 32.0 °F 28.7 °F 30.2 °F 93% 30.01 in 6.2 mi SW 3.5 mph - N/A   Partly Cloudy
6:30 AM 30.2 °F - 30.2 °F 100% 30.01 in 6.2 mi SSE 1.2 mph - N/A   Partly Cloudy
7:00 AM 32.0 °F - 30.2 °F 93% 29.98 in - South 1.2 mph - N/A   Clear
7:30 AM 32.0 °F - 32.0 °F 100% 29.98 in - South 1.2 mph - N/A   Clear
8:00 AM 32.0 °F 28.7 °F 32.0 °F 100% 29.98 in 6.2 mi South 3.5 mph - N/A   Partly Cloudy
8:30 AM 32.0 °F - 32.0 °F 100% 29.98 in 6.2 mi South 2.3 mph - N/A   Partly Cloudy
9:00 AM 32.0 °F - 32.0 °F 100% 29.98 in 6.2 mi Variable 2.3 mph - N/A   Partly Cloudy
9:30 AM 32.0 °F - 32.0 °F 100% 30.01 in 6.2 mi SSW 1.2 mph - N/A   Partly Cloudy
10:00 AM 32.0 °F - 32.0 °F 100% 30.01 in 6.2 mi South 1.2 mph - N/A   Scattered Clouds
10:30 AM 33.8 °F - 32.0 °F 93% 30.01 in 6.2 mi Variable 2.3 mph - N/A   Scattered Clouds
11:00 AM 33.8 °F 30.8 °F 33.8 °F 100% 30.01 in 6.2 mi SE 3.5 mph - N/A   Partly Cloudy
11:30 AM 35.6 °F - 35.6 °F 100% 30.01 in 6.2 mi Variable 1.2 mph - N/A   Partly Cloudy
12:00 PM 37.4 °F - 35.6 °F 93% 30.04 in 6.2 mi Calm Calm - N/A   Partly Cloudy
12:30 PM 37.4 °F - 35.6 °F 93% 30.01 in 6.2 mi Variable 1.2 mph - N/A   Scattered Clouds
1:00 PM 41.0 °F - 37.4 °F 87% 30.01 in 6.2 mi Variable 2.3 mph - N/A   Scattered Clouds
1:30 PM 41.0 °F - 37.4 °F 87% 29.98 in 6.2 mi Variable 1.2 mph - N/A   Scattered Clouds
2:00 PM 41.0 °F - 37.4 °F 87% 29.98 in 6.2 mi Variable 1.2 mph - N/A   Scattered Clouds
2:30 PM 41.0 °F 39.0 °F 37.4 °F 87% 29.98 in 6.2 mi WSW 3.5 mph - N/A   Scattered Clouds
3:00 PM 42.8 °F 40.1 °F 39.2 °F 87% 29.98 in 6.2 mi WSW 4.6 mph - N/A   Mostly Cloudy
3:30 PM 42.8 °F 38.0 °F 39.2 °F 87% 29.98 in 6.2 mi WSW 8.1 mph - N/A   Mostly Cloudy
4:00 PM 42.8 °F 38.0 °F 39.2 °F 87% 29.98 in 6.2 mi West 8.1 mph - N/A   Mostly Cloudy
4:30 PM 42.8 °F 38.6 °F 39.2 °F 87% 29.98 in 6.2 mi WSW 6.9 mph - N/A   Mostly Cloudy
5:00 PM 42.8 °F 38.6 °F 41.0 °F 93% 29.98 in 6.2 mi West 6.9 mph - N/A   Mostly Cloudy
5:30 PM 42.8 °F 38.0 °F 41.0 °F 93% 29.98 in 6.2 mi WSW 8.1 mph - N/A   Mostly Cloudy
6:00 PM 42.8 °F 38.0 °F 41.0 °F 93% 29.98 in 6.2 mi WSW 8.1 mph - N/A   Mostly Cloudy
6:30 PM 42.8 °F 38.0 °F 41.0 °F 93% 29.98 in 6.2 mi WSW 8.1 mph - N/A   Mostly Cloudy
7:00 PM 42.8 °F 38.6 °F 41.0 °F 93% 29.98 in 6.2 mi SW 6.9 mph - N/A   Mostly Cloudy
7:30 PM 42.8 °F 38.0 °F 41.0 °F 93% 30.01 in 6.2 mi West 8.1 mph - N/A   Mostly Cloudy
8:00 PM 42.8 °F 37.5 °F 41.0 °F 93% 30.01 in 6.2 mi West 9.2 mph - N/A   Mostly Cloudy
8:30 PM 42.8 °F 38.0 °F 41.0 °F 93% 30.01 in 5.0 mi West 8.1 mph - N/A   Mostly Cloudy
9:00 PM 42.8 °F 36.6 °F 42.8 °F 100% 30.01 in 6.2 mi West 11.5 mph - N/A   Overcast
9:30 PM 42.8 °F 35.8 °F 42.8 °F 100% 30.01 in 6.2 mi West 13.8 mph - N/A   Overcast
10:00 PM 42.8 °F 36.2 °F 41.0 °F 93% 30.01 in 2.5 mi West 12.7 mph - N/A   Overcast
10:30 PM 42.8 °F 35.8 °F 41.0 °F 93% 29.98 in 0.3 mi West 13.8 mph - N/A Fog Fog